When you browse on this site, cookies collect data to enhance your experience and personalize the content and advertising you see.
Visit our Privacy Policy to learn more. By continuing to use the site, you agree to this use of cookies and data.

Meteo pe oră la Hirosima

Astăzi, 9 August, Duminică

Timp Temperatura Precipitaţii Vânt Presiune Umiditate
00:00 +27°C° 0.2 mm 3 m/s 755 mmHg 91%
01:00 +27°C° 0.1 mm 2 m/s 755 mmHg 92%
02:00 +27°C° 0.1 mm 2 m/s 755 mmHg 93%
03:00 +27°C° 0.1 mm 2 m/s 755 mmHg 94%
04:00 +27°C° 0 mm 2 m/s 755 mmHg 94%
05:00 +27°C° 0 mm 1 m/s 755 mmHg 95%
06:00 +27°C° 0 mm 1 m/s 755 mmHg 95%
07:00 +27°C° 0 mm 1 m/s 755 mmHg 93%
08:00 +28°C° 0 mm 2 m/s 755 mmHg 91%
09:00 +29°C° 0 mm 2 m/s 755 mmHg 89%
10:00 +30°C° 0.4 mm 2 m/s 755 mmHg 85%
11:00 +31°C° 0.4 mm 2 m/s 755 mmHg 82%
12:00 +31°C° 0.4 mm 2 m/s 755 mmHg 78%
13:00 +31°C° 0.4 mm 3 m/s 755 mmHg 76%
14:00 +33°C° 0.4 mm 4 m/s 755 mmHg 75%
15:00 +33°C° 0.4 mm 4 m/s 755 mmHg 73%
16:00 +32°C° 0.6 mm 4 m/s 755 mmHg 77%
17:00 +30°C° 0.6 mm 3 m/s 755 mmHg 82%
18:00 +29°C° 0.6 mm 3 m/s 755 mmHg 87%
19:00 +29°C° 0.3 mm 3 m/s 756 mmHg 87%
20:00 +28°C° 0.3 mm 3 m/s 756 mmHg 88%
21:00 +28°C° 0.3 mm 3 m/s 756 mmHg 89%
22:00 +28°C° 0 mm 2 m/s 756 mmHg 89%
23:00 +28°C° 0 mm 2 m/s 756 mmHg 89%

Mâine, 10 August, Luni

Timp Temperatura Precipitaţii Vânt Presiune Umiditate
00:00 +28°C° 0 mm 1 m/s 756 mmHg 90%
01:00 +27°C° 0 mm 2 m/s 756 mmHg 90%
02:00 +27°C° 0 mm 2 m/s 756 mmHg 90%
03:00 +27°C° 0 mm 2 m/s 755 mmHg 90%
04:00 +27°C° 0 mm 2 m/s 756 mmHg 89%
05:00 +27°C° 0 mm 2 m/s 756 mmHg 89%
06:00 +27°C° 0 mm 3 m/s 756 mmHg 89%
07:00 +28°C° 0 mm 3 m/s 756 mmHg 86%
08:00 +29°C° 0 mm 4 m/s 756 mmHg 83%
09:00 +30°C° 0 mm 4 m/s 756 mmHg 80%
10:00 +30°C° 0.2 mm 5 m/s 756 mmHg 81%
11:00 +30°C° 0.2 mm 5 m/s 756 mmHg 83%
12:00 +30°C° 0.2 mm 6 m/s 756 mmHg 84%
13:00 +30°C° 0.8 mm 6 m/s 755 mmHg 86%
14:00 +30°C° 0.8 mm 7 m/s 755 mmHg 88%
15:00 +30°C° 0.8 mm 7 m/s 754 mmHg 89%
16:00 +30°C° 0.7 mm 6 m/s 755 mmHg 90%
17:00 +29°C° 0.7 mm 6 m/s 755 mmHg 91%
18:00 +29°C° 0.7 mm 5 m/s 755 mmHg 92%
19:00 +29°C° 1 mm 5 m/s 755 mmHg 93%
20:00 +29°C° 1 mm 4 m/s 756 mmHg 93%
21:00 +28°C° 1 mm 4 m/s 756 mmHg 93%
22:00 +28°C° 0.4 mm 4 m/s 756 mmHg 94%
23:00 +28°C° 0.4 mm 3 m/s 757 mmHg 95%

Poimâine, 11 August, Marţi

Timp Temperatura Precipitaţii Vânt Presiune Umiditate
00:00 +28°C° 0.4 mm 3 m/s 757 mmHg 96%
01:00 +28°C° 0.4 mm 3 m/s 757 mmHg 96%
02:00 +28°C° 0.4 mm 3 m/s 757 mmHg 95%
03:00 +28°C° 0.4 mm 3 m/s 756 mmHg 95%
04:00 +28°C° 0.5 mm 2 m/s 757 mmHg 96%
05:00 +28°C° 0.5 mm 2 m/s 757 mmHg 96%
06:00 +28°C° 0.5 mm 2 m/s 757 mmHg 96%
07:00 +28°C° 1.4 mm 2 m/s 758 mmHg 95%
08:00 +29°C° 1.4 mm 2 m/s 758 mmHg 94%
09:00 +29°C° 1.4 mm 2 m/s 758 mmHg 93%
10:00 +30°C° 0.9 mm 2 m/s 758 mmHg 88%
11:00 +31°C° 0.9 mm 3 m/s 759 mmHg 83%
12:00 +33°C° 0.9 mm 3 m/s 759 mmHg 78%
13:00 +31°C° 0.7 mm 3 m/s 759 mmHg 83%
14:00 +30°C° 0.7 mm 2 m/s 758 mmHg 88%
15:00 +29°C° 0.7 mm 2 m/s 758 mmHg 93%
16:00 +29°C° 0.1 mm 2 m/s 758 mmHg 92%
17:00 +29°C° 0.1 mm 1 m/s 758 mmHg 92%
18:00 +29°C° 0.1 mm 1 m/s 759 mmHg 92%
19:00 +28°C° 0 mm 1 m/s 759 mmHg 92%
20:00 +28°C° 0 mm 1 m/s 759 mmHg 93%
21:00 +27°C° 0 mm 1 m/s 759 mmHg 93%
22:00 +27°C° 0 mm 1 m/s 759 mmHg 93%
23:00 +27°C° 0 mm 1 m/s 759 mmHg 92%

12 August, Miercuri

Timp Temperatura Precipitaţii Vânt Presiune Umiditate
00:00 +25°C° 0 mm 0 m/s 760 mmHg 92%
01:00 +25°C° 0 mm 0 m/s 759 mmHg 92%
02:00 +27°C° 0 mm 1 m/s 759 mmHg 93%
03:00 +27°C° 0 mm 1 m/s 759 mmHg 93%
04:00 +25°C° 0 mm 0 m/s 759 mmHg 93%
05:00 +25°C° 0 mm 0 m/s 759 mmHg 93%
06:00 +25°C° 0 mm 0 m/s 760 mmHg 93%
07:00 +28°C° 0 mm 1 m/s 760 mmHg 88%
08:00 +29°C° 0 mm 1 m/s 760 mmHg 83%
09:00 +31°C° 0 mm 1 m/s 760 mmHg 77%
10:00 +32°C° 0 mm 2 m/s 760 mmHg 74%
11:00 +32°C° 0 mm 2 m/s 760 mmHg 70%
12:00 +34°C° 0 mm 2 m/s 760 mmHg 67%
13:00 +34°C° 0.3 mm 2 m/s 759 mmHg 68%
14:00 +34°C° 0.3 mm 2 m/s 759 mmHg 69%
15:00 +34°C° 0.3 mm 2 m/s 759 mmHg 71%
16:00 +34°C° 0.3 mm 2 m/s 759 mmHg 75%
17:00 +32°C° 0.3 mm 2 m/s 759 mmHg 79%
18:00 +31°C° 0.3 mm 1 m/s 758 mmHg 83%
19:00 +30°C° 0.6 mm 1 m/s 759 mmHg 85%
20:00 +29°C° 0.6 mm 1 m/s 759 mmHg 87%
21:00 +28°C° 0.6 mm 1 m/s 759 mmHg 89%
22:00 +28°C° 0.1 mm 1 m/s 759 mmHg 89%
23:00 +28°C° 0.1 mm 1 m/s 759 mmHg 89%

13 August, Joi

Timp Temperatura Precipitaţii Vânt Presiune Umiditate
00:00 +27°C° 0.1 mm 1 m/s 759 mmHg 89%
01:00 +27°C° 0 mm 1 m/s 759 mmHg 89%
02:00 +27°C° 0 mm 1 m/s 759 mmHg 89%
03:00 +27°C° 0 mm 1 m/s 759 mmHg 89%
04:00 +27°C° 0 mm 1 m/s 759 mmHg 89%
05:00 +27°C° 0 mm 1 m/s 758 mmHg 89%
06:00 +25°C° 0 mm 0 m/s 758 mmHg 89%
07:00 +26°C° 0 mm 0 m/s 758 mmHg 83%
08:00 +28°C° 0 mm 0 m/s 759 mmHg 77%
09:00 +29°C° 0 mm 0 m/s 759 mmHg 72%
10:00 +32°C° 0 mm 1 m/s 758 mmHg 69%
11:00 +33°C° 0 mm 1 m/s 758 mmHg 65%
12:00 +34°C° 0 mm 2 m/s 758 mmHg 62%
13:00 +35°C° 0.2 mm 2 m/s 757 mmHg 64%
14:00 +35°C° 0.2 mm 2 m/s 757 mmHg 65%
15:00 +35°C° 0.2 mm 2 m/s 757 mmHg 66%
16:00 +34°C° 0.1 mm 2 m/s 757 mmHg 71%
17:00 +32°C° 0.1 mm 2 m/s 757 mmHg 76%
18:00 +32°C° 0.1 mm 2 m/s 757 mmHg 80%
19:00 +31°C° 0.1 mm 1 m/s 757 mmHg 83%
20:00 +30°C° 0.1 mm 1 m/s 757 mmHg 86%
21:00 +29°C° 0.1 mm 1 m/s 758 mmHg 89%
22:00 +28°C° 0 mm 1 m/s 757 mmHg 89%
23:00 +28°C° 0 mm 1 m/s 757 mmHg 89%

14 August, Vineri

Timp Temperatura Precipitaţii Vânt Presiune Umiditate
00:00 +28°C° 0 mm 1 m/s 757 mmHg 89%
01:00 +27°C° 0 mm 1 m/s 757 mmHg 88%
02:00 +27°C° 0 mm 1 m/s 756 mmHg 88%
03:00 +27°C° 0 mm 1 m/s 756 mmHg 88%
04:00 +27°C° 0 mm 1 m/s 756 mmHg 88%
05:00 +27°C° 0 mm 1 m/s 756 mmHg 88%
06:00 +27°C° 0 mm 1 m/s 756 mmHg 88%
07:00 +28°C° 0 mm 1 m/s 756 mmHg 81%
08:00 +30°C° 0 mm 1 m/s 757 mmHg 75%
09:00 +31°C° 0 mm 1 m/s 757 mmHg 68%
10:00 +32°C° 0 mm 2 m/s 756 mmHg 66%
11:00 +34°C° 0 mm 2 m/s 756 mmHg 63%
12:00 +35°C° 0 mm 3 m/s 756 mmHg 61%
13:00 +35°C° 0 mm 3 m/s 755 mmHg 60%
14:00 +35°C° 0 mm 3 m/s 755 mmHg 60%
15:00 +36°C° 0 mm 3 m/s 755 mmHg 59%
16:00 +35°C° 0 mm 3 m/s 755 mmHg 64%
17:00 +34°C° 0 mm 3 m/s 754 mmHg 69%
18:00 +32°C° 0 mm 2 m/s 754 mmHg 74%
19:00 +31°C° 0 mm 2 m/s 754 mmHg 78%
20:00 +30°C° 0 mm 2 m/s 755 mmHg 82%
21:00 +28°C° 0 mm 2 m/s 755 mmHg 86%
22:00 +28°C° 0 mm 2 m/s 755 mmHg 86%
23:00 +28°C° 0 mm 2 m/s 755 mmHg 86%
Arată mai mult